SCP
0 0 0 0 0 0 0 0 0 0 0 0 0 0 0 0 0 0 0 0 0 0 0 0 0 0 0 0 0 0 0 0 0 0 0 0 0 0 0 0 0 0 0
0 0 0 0 0 0 0 0 0 0 0 0 0 0 0 0 0 0 0 0 0 0 0 0 0 0 0 0 0 0 0 0 0 0 0 0 0 0 0 0 0 0 0
0 0 0 0 0 0 0 0 0 0 0 0 0 0 0 0 0 0 0 0 0 0 0 0 0 0 0 0 0 0 0 0 0 0 0 0 0 0 0 0 0 0 0
0 0 0 0 0 0 0 0 0 0 0 0 0 0 0 0 0 0 0 0 0 0 0 0 0 0 0 0 0 0 0 0 0 0 0 0 0 0 0 0 0 0 0
0 0 0 0 0 0 0 0 0 0 0 0 0 0 0 0 0 0 0 0 0 0 0 0 0 0 0 0 0 0 0 0 0 0 0 0 0 0 0 0 0 0 0
0 0 0 0 0 0 0 0 0 0 0 0 0 0 0 0 0 0 0 0 0 0 0 0 0 0 0 0 0 0 0 0 0 0 0 0 0 0 0 0 0 0 0
0 0 0 0 0 0 0 0 0 0 0 0 0 0 0 0 0 0 0 0 0 0 0 0 0 0 0 0 0 0 0 0 0 0 0 0 0 0 0 0 0 0 0
0 0 0 0 0 0 0 0 0 0 0 0 0 0 0 0 0 0 0 0 0 0 0 0 0 0 0 0 0 0 0 0 0 0 0 0 0 0 0 0 0 0 0
0 0 0 0 0 0 0 0 0 0 0 0 0 0 0 0 0 0 0 0 0 0 0 0 0 0 0 0 0 0 0 0 0 0 0 0 0 0 0 0 0 0 0
0 0 0 0 0 0 0 0 0 0 0 0 0 0 0 0 0 0 0 0 0 0 0 0 0 0 0 0 0 0 0 0 0 0 0 0 0 0 0 0 0 0 0
0 0 0 0 0 0 0 0 0 0 0 0 0 0 0 0 0 0 0 0 0 0 0 0 0 0 0 0 0 0 0 0 0 0 0 0 0 0 0 0 0 0 0
0 0 0 0 0 0 0 0 0 0 0 0 0 0 0 0 0 0 0 0 0 0 0 0 0 0 0 0 0 0 0 0 0 0 0 0 0 0 0 0 0 0 0
0 0 0 0 0 0 0 0 0 0 0 0 0 0 0 0 0 0 0 0 0 0 0 0 0 0 0 0 0 0 0 0 0 0 0 0 0 0 0 0 0 0 0
0 0 0 0 0 0 0 0 0 0 0 0 0 0 0 0 0 0 0 0 0 0 0 0 0 0 0 0 0 0 0 0 0 0 0 0 0 0 0 0 0 0 0
0 0 0 0 0 0 0 0 0 0 0 0 0 0 0 0 0 0 0 0 0 0 0 0 0 0 0 0 0 0 0 0 0 0 0 0 0 0 0 0 0 0 0
0 0 0 0 0 0 0 0 0 0 0 0 0 0 0 0 0 0 0 0 0 0 0 0 0 0 0 0 0 0 0 0 0 0 0 0 0 0 0 0 0 0 0
0 0 0 0 0 0 0 0 0 0 0 0 0 0 0 0 0 0 0 0 0 0 0 0 0 0 0 0 0 0 0 0 0 0 0 0 0 0 0 0 0 0 0
0 0 0 0 0 0 0 0 0 0 0 0 0 0 0 0 0 0 0 0 0 0 0 0 0 0 0 0 0 0 0 0 0 0 0 0 0 0 0 0 0 0 0
0 0 0 0 0 0 0 0 0 0 0 0 0 0 0 0 0 0 0 0 0 0 0 0 0 0 0 0 0 0 0 0 0 0 0 0 0 0 0 0 0 0 0
0 0 0 0 0 1 0 0 0 0 0 0 0 0 0 0 0 0 0 0 0 0 0 0 0 0 0 0 0 0 0 0 0 0 0 0 0 0 0 0 0 0 0
0 0 0 0 0 1 1 0 0 0 0 0 0 0 0 0 0 0 0 0 0 0 0 0 0 0 0 0 0 0 0 0 0 0 0 0 0 0 0 0 0 0 0
0 0 0 0 0 1 1 0 0 0 0 0 0 0 0 0 0 0 0 0 0 0 0 0 0 0 0 0 0 0 0 0 0 0 0 0 0 0 0 0 0 0 0
0 0 0 0 0 0 0 0 0 0 0 0 0 0 0 0 0 0 0 0 0 0 0 0 0 0 0 0 0 0 0 0 0 0 0 0 0 0 0 0 0 0 0
0 0 0 0 0 0 0 0 0 0 0 0 0 0 0 0 0 0 0 0 0 0 0 0 0 0 0 0 0 0 0 0 0 0 0 0 0 0 0 0 0 0 0
0 0 0 0 0 0 0 0 0 0 0 0 0 0 0 0 0 0 0 0 0 0 0 0 0 0 0 0 0 0 0 0 0 0 0 0 0 0 0 0 0 0 0
0 0 0 0 0 0 0 0 0 0 0 0 0 0 0 0 0 0 0 0 0 0 0 0 0 0 0 0 0 0 0 0 0 0 0 0 0 0 0 0 0 0 0
Wind_Speed
5 5 6 10 12 13 13 13 13 13 13 14 14 14 15 17 18 18 18 18 18 19 19 19 20 20 20 21 21 21 21 21 21 21 22 23 23 23 23 22 20 16 24
8 7 8 10 12 13 13 13 13 13 13 13 14 14 15 17 18 18 18 18 18 19 19 19 19 19 19 20 20 20 20 20 20 20 20 20 22 23 23 22 21 17 24
10 8 8 10 13 13 14 13 13 13 13 13 13 14 15 17 18 18 18 18 18 18 18 18 18 18 18 18 19 20 20 20 19 18 17 10 15 23 23 23 23 24 24
11 9 9 11 13 14 14 13 13 13 13 13 13 14 15 17 18 18 18 17 17 18 17 18 18 18 18 19 19 20 19 19 18 16 9 8 11 21 23 23 24 24 24
10 8 10 12 14 14 14 14 13 13 13 13 13 14 16 17 17 17 17 17 17 17 17 17 17 17 18 19 19 19 19 19 17 13 8 9 10 21 23 23 24 24 23
9 9 10 13 14 15 14 14 14 14 13 13 14 15 16 17 17 17 17 17 16 16 16 16 16 17 18 19 19 19 18 18 13 8 8 8 9 20 22 23 23 23 23
9 8 10 13 14 14 14 14 14 14 13 13 14 15 16 16 16 16 16 16 16 16 16 16 16 17 18 18 19 19 18 17 10 8 7 8 13 22 22 22 22 22 22
10 9 9 12 13 13 13 13 14 14 14 14 14 15 15 16 16 16 16 16 16 16 16 16 16 17 17 18 18 17 16 13 11 9 7 8 17 21 22 22 22 22 22
10 9 7 8 10 12 12 12 12 12 13 13 14 14 14 14 15 15 15 15 16 16 16 16 16 17 18 18 18 17 16 14 8 6 8 7 18 21 21 21 21 21 21
9 9 8 7 7 7 8 12 12 12 12 12 12 12 12 12 13 12 11 14 15 15 15 16 16 17 17 17 17 16 15 11 7 6 5 10 19 20 20 20 20 20 20
9 9 9 8 8 7 7 10 11 11 11 12 10 12 10 6 6 7 9 13 15 15 15 15 16 16 15 16 16 15 11 5 6 4 4 14 18 19 19 19 19 19 19
12 10 9 9 9 8 7 7 6 6 7 6 6 7 5 5 5 6 10 11 12 13 14 15 15 13 10 6 9 11 5 6 5 4 5 15 17 18 18 18 18 18 18
11 11 10 10 10 9 6 7 4 4 5 5 7 7 6 5 4 4 4 6 6 8 6 8 7 5 5 5 5 5 6 5 4 3 5 13 16 17 17 17 17 17 17
10 12 11 11 10 10 8 7 7 6 5 6 7 8 7 5 4 4 3 4 4 3 4 4 4 5 6 6 6 6 6 4 4 3 4 10 14 15 15 16 16 16 16
11 12 12 12 12 11 9 8 8 8 8 8 7 8 8 7 7 6 4 4 4 4 4 5 5 6 6 6 6 7 6 6 5 5 4 8 10 13 14 14 15 15 15
13 14 12 13 13 12 10 9 9 9 8 8 8 9 10 8 8 8 7 6 5 5 4 5 6 6 5 5 6 6 6 5 5 5 4 5 8 9 12 13 13 13 13
13 12 13 13 13 13 13 11 9 9 9 9 9 10 11 10 10 9 8 7 6 6 6 5 6 5 5 5 6 5 5 5 5 5 4 3 4 6 9 11 11 12 12
11 11 13 11 13 14 12 11 9 9 10 9 9 10 13 12 12 10 8 8 8 7 7 7 6 5 5 5 4 3 3 4 5 4 4 3 3 3 4 8 8 10 11
14 13 14 14 15 14 12 10 9 8 10 9 9 9 12 13 13 11 9 8 9 8 7 8 6 6 6 6 4 3 2 2 3 4 4 3 3 3 3 5 5 5 9
14 13 14 14 14 12 9 7 6 7 8 8 9 10 13 12 14 12 9 10 11 9 8 8 8 5 6 6 6 3 2 1 1 2 3 3 2 3 3 3 3 2 5
12 13 15 15 14 11 8 9 9 10 8 8 8 10 13 13 14 13 9 11 11 11 12 12 7 9 6 6 5 2 1 1 1 2 2 3 3 3 3 3 2 2 1
14 14 15 16 14 13 12 9 6 5 4 5 5 8 11 13 14 12 13 11 12 10 11 12 10 7 5 8 5 4 3 3 4 5 4 5 5 4 4 5 4 3 2
13 15 14 16 16 14 11 5 3 3 2 4 6 8 10 11 13 13 14 12 13 12 13 15 15 14 10 9 6 7 7 9 4 4 6 6 6 5 5 5 6 5 5
13 11 12 12 12 11 11 9 10 10 10 9 6 5 6 8 10 12 13 13 13 12 13 14 16 12 11 11 7 5 3 5 6 5 3 6 8 9 8 8 7 7 6
6 6 7 7 8 8 10 11 11 11 9 4 4 5 7 7 8 10 11 12 13 13 14 15 16 14 11 11 9 6 4 2 2 5 5 6 7 9 9 8 7 7 8
1 2 3 5 6 6 8 9 11 12 9 7 6 6 6 5 7 9 10 11 12 12 14 15 16 18 15 13 11 8 8 7 8 6 6 5 7 7 8 8 9 8 8
Wind_Direction
162 168 153 125 114 106 100 96 93 92 91 90 89 89 91 94 93 90 88 86 85 84 84 85 84 84 84 82 81 79 78 78 77 78 78 78 78 77 76 73 70 67 72
151 154 146 127 117 109 104 100 98 95 94 93 92 92 94 97 96 93 91 89 88 88 88 88 87 86 86 86 85 84 82 80 78 76 76 78 78 78 77 76 76 75 74
142 146 140 128 120 114 108 105 102 100 99 97 96 96 97 99 98 95 94 92 91 91 92 91 89 86 86 88 87 86 84 82 80 76 73 66 76 78 77 76 75 75 74
143 145 141 132 125 120 113 110 106 104 103 102 101 100 100 100 99 98 96 94 94 94 94 92 88 85 85 88 88 87 85 82 78 74 65 64 75 79 78 76 74 73 72
143 143 142 137 131 125 119 115 111 109 108 108 107 103 102 101 100 100 99 97 96 97 96 93 88 86 87 89 89 88 86 83 77 68 61 65 75 81 79 76 74 72 71
143 143 146 141 136 131 126 121 118 116 115 114 111 107 105 105 104 103 102 100 99 98 97 93 89 89 91 92 91 89 87 82 70 59 61 68 77 84 82 79 77 75 73
142 144 150 144 140 137 133 129 126 123 122 119 116 112 110 109 108 107 105 104 103 102 99 95 91 90 93 93 92 90 86 82 71 62 63 72 83 85 83 81 79 77 75
145 146 150 147 144 143 139 135 132 130 128 126 122 119 117 115 114 112 111 110 108 106 103 99 95 93 94 93 90 86 78 75 74 69 67 78 88 87 85 82 80 79 78
145 146 147 149 150 148 143 139 137 135 134 132 128 123 120 119 118 117 117 116 114 111 107 103 98 96 96 94 90 85 78 72 62 62 74 81 90 89 87 85 83 82 80
148 152 153 153 152 150 147 146 143 141 138 132 126 121 119 119 118 117 118 120 119 117 113 108 102 98 97 94 89 81 73 66 55 58 67 89 92 92 90 88 86 85 83
160 163 161 160 158 155 153 154 148 144 139 132 129 127 120 115 114 116 123 124 124 122 119 113 104 98 95 92 86 78 68 53 51 55 76 97 98 96 94 92 90 88 87
174 174 170 169 166 162 162 155 152 148 145 140 141 136 127 124 123 122 123 125 126 126 123 118 107 98 90 80 78 74 62 53 47 45 90 103 103 101 99 97 95 93 91
177 177 178 175 172 170 165 162 161 153 152 149 151 146 136 126 123 118 121 123 124 120 109 107 94 87 88 88 83 76 68 60 45 36 84 105 107 106 105 103 101 98 95
181 185 182 178 176 177 171 172 171 167 167 167 168 159 151 147 145 145 142 142 138 125 119 108 105 100 96 96 96 89 77 69 53 38 63 99 113 114 112 110 107 104 101
189 191 187 182 182 181 177 178 179 179 179 177 175 173 167 163 163 160 158 158 153 141 137 130 123 117 110 106 103 102 93 81 68 54 41 71 109 120 119 116 114 111 108
199 196 190 188 186 183 184 185 185 185 183 181 183 183 177 172 170 169 169 171 169 159 148 139 135 126 118 116 112 111 107 98 82 69 51 48 70 110 123 123 121 119 115
204 197 194 192 188 187 189 188 187 188 186 188 189 187 184 179 177 176 177 180 175 159 146 134 126 121 123 121 119 119 116 111 103 86 69 52 47 69 118 128 128 126 123
206 200 200 195 193 193 192 190 190 190 190 192 191 190 189 186 181 179 181 184 173 162 158 152 149 139 135 132 128 123 117 118 116 108 91 77 63 51 88 119 133 138 135
208 204 201 200 198 197 194 191 191 191 195 194 192 193 193 190 186 184 186 183 172 168 166 164 161 149 149 140 125 109 107 117 128 129 123 112 100 87 68 85 80 130 149
209 205 204 202 202 195 190 187 190 198 200 196 197 197 193 193 191 189 187 181 175 172 172 170 164 150 144 140 120 92 66 82 126 156 160 153 146 131 113 97 65 54 146
208 204 203 202 200 190 188 194 198 206 202 203 203 198 196 194 192 192 188 183 181 182 181 173 159 152 144 141 113 95 21 351 232 210 198 189 188 177 162 151 134 100 81
209 207 205 204 198 197 201 200 197 194 197 205 203 205 202 198 194 195 191 187 187 185 181 176 161 159 161 173 147 140 176 249 246 218 205 203 201 194 192 184 171 161 146
213 210 207 206 202 200 194 172 153 148 165 195 209 211 208 203 199 197 196 191 191 189 187 184 180 174 176 191 187 165 167 202 203 216 215 208 200 201 203 194 190 183 176
222 215 211 205 200 194 183 181 184 197 210 213 207 207 205 208 206 202 198 196 195 196 194 190 190 189 179 187 203 220 197 150 165 188 223 217 207 207 204 202 197 193 184
231 215 210 201 198 188 187 192 197 211 218 202 192 203 207 208 212 209 204 202 200 201 200 195 195 197 196 193 190 176 175 168 170 162 193 202 212 215 206 204 199 199 193
349 186 183 188 197 189 191 196 203 212 208 202 204 208 210 211 215 215 211 210 208 206 205 202 200 202 205 205 202 194 180 176 188 182 179 188 206 206 201 202 203 202 198